DW7779 Weather Reports


Display with metric or nautical units.
time (UTC)temp
F
wind
direction
speed
MPH
gust
MPH
rain 1hr
in
rain 24hr
in
rain mn
in
humidity
%
barometer
mb
20260903054547 60 2.0 7.0 0.00 0.04 0.04 64 1013.5
20260903053148 59 3.0 5.0 0.00 0.04 0.04 63 1013.2
20260903051548 60 3.0 7.0 0.00 0.04 0.04 60 1013.0
20260903050040 61 3.0 13.0 0.00 0.04 0.04 60 1012.6
20260903044641 60 3.0 10.0 0.00 0.04 0.04 62 1012.4
20260903043038 60 3.0 7.0 0.00 0.04 0.04 61 1012.4
20260903041535 61 3.0 9.0 0.00 0.04 0.04 63 1012.1
20260903040040 62 2.0 8.0 0.00 0.04 0.04 62 1012.0
20260903034533 61 3.0 9.0 0.00 0.04 0.04 61 1012.0
20260903033029 61 4.0 9.0 0.00 0.04 0.04 64 1012.0
20260903031526 61 2.0 7.0 0.00 0.04 0.04 70 1012.0
20260903030021 59 1.0 7.0 0.00 0.04 0.04 79 1012.1
20260903024520 58 4.0 13.0 0.00 0.04 0.04 83 1012.0
20260903023024 57 3.0 7.0 0.00 0.04 0.04 87 1011.7
20260903021520 57 3.0 10.0 0.00 0.04 0.04 88 1011.7
20260903020015 56 3.0 8.0 0.00 0.04 0.04 92 1011.5
20260903014512 55 2.0 9.0 0.00 0.04 0.04 91 1011.3
20260903013012 56 3.0 7.0 0.01 0.04 0.04 95 1010.9
20260903011509 55 3.0 9.0 0.02 0.04 0.04 95 1011.0
20260903010008 52 2.0 7.0 0.02 0.04 0.04 95 1011.0
20260903004505 52 2.0 9.0 0.02 0.04 0.04 93 1010.9
20260903003003 54 5.0 13.0 0.02 0.03 0.03 85 1010.8
20260903001504 58 4.0 11.0 0.00 0.02 0.02 80 1010.3
20260902234557 56 1.0 3.0 0.02 0.02 0.02 89 1010.2
20260902233057 55 0.0 4.0 0.02 0.02 0.02 90 1010.3
20260902231556 54 2.0 6.0 0.02 0.02 0.02 91 1010.2
20260902230056 55 2.0 6.0 0.01 0.01 0.01 87 1010.2
20260902224556 56 4.0 14.0 0.00 0.00 0.00 83 1009.7
20260902223053 57 5.0 15.0 0.00 0.00 0.00 80 1009.0
20260902221551 56 6.0 15.0 0.00 0.00 0.00 80 1008.5
20260902220054 55 8.0 14.0 0.00 0.00 0.00 80 1008.1
20260902214542 54 6.0 13.0 0.00 0.00 0.00 81 1007.9
20260902213046 54 4.0 11.0 0.00 0.00 0.00 82 1007.9
20260902211540 53 6.0 9.0 0.00 0.00 0.00 82 1007.7
20260902210037 53 4.0 10.0 0.00 0.00 0.00 82 1007.6
20260902204536 53 5.0 11.0 0.00 0.00 0.00 81 1007.8
20260902203035 53 5.0 10.0 0.00 0.00 0.00 81 1007.8
20260902201535 52 4.0 8.0 0.00 0.00 0.00 82 1007.8
20260902200032 52 2.0 8.0 0.00 0.00 0.00 81 1007.7
20260902194538 52 2.0 8.0 0.00 0.00 0.00 81 1007.5
20260902193030 52 5.0 11.0 0.00 0.00 0.00 80 1007.3
20260902191529 51 3.0 7.0 0.00 0.00 0.00 81 1007.6
20260902190033 50 3.0 6.0 0.00 0.00 0.00 81 1007.6
20260902184522 49 2.0 5.0 0.00 0.00 0.00 81 1007.6
20260902183022 49 1.0 3.0 0.00 0.00 0.00 81 1007.5
20260902181521 49 1.0 2.0 0.00 0.00 0.00 81 1007.5
20260902180030 49 0.0 2.0 0.00 0.00 0.00 81 1007.5
20260902174519 48 0.0 2.0 0.00 0.00 0.00 81 1007.5
20260902173017 49 0.0 2.0 0.00 0.00 0.00 80 1007.7
20260902171516 49 2.0 4.0 0.00 0.00 0.00 79 1008.0
20260902170014 50 1.0 5.0 0.00 0.00 0.00 79 1007.9
20260902164511 50 2.0 5.0 0.00 0.00 0.00 79 1008.2
20260902163009 50 2.0 9.0 0.00 0.00 0.00 78 1008.3
20260902161514 49 3.0 6.0 0.00 0.00 0.00 79 1008.4
20260902160008 50 3.0 6.0 0.00 0.00 0.00 79 1008.7
20260902154502 50 2.0 5.0 0.00 0.00 0.00 79 1008.9
20260902153104 49 2.0 4.0 0.00 0.00 0.00 80 1009.0
20260902151600 48 2.0 7.0 0.00 0.00 0.00 81 1008.9
20260902150055 47 2.0 5.0 0.00 0.00 0.00 83 1008.7
20260902144558 47 2.0 7.0 0.00 0.00 0.00 83 1008.7
20260902143049 48 2.0 5.0 0.00 0.00 0.00 82 1009.0
20260902141552 48 3.0 6.0 0.00 0.00 0.00 81 1009.0
20260902140044 48 3.0 6.0 0.00 0.00 0.00 82 1009.3
20260902134545 48 3.0 4.0 0.00 0.00 0.00 82 1009.3
20260902133041 48 2.0 4.0 0.00 0.00 0.00 83 1009.4
20260902131539 48 1.0 2.0 0.00 0.00 0.00 82 1009.7
20260902130039 49 2.0 5.0 0.00 0.00 0.00 83 1009.8
20260902124535 49 1.0 3.0 0.00 0.00 0.00 85 1010.0
20260902123035 49 0.0 1.0 0.00 0.00 0.00 85 1010.1
20260902121538 50 0.0 0.0 0.00 0.00 0.00 84 1010.4
20260902120035 52 0.0 0.0 0.00 0.00 0.00 83 1010.6
20260902114536 52 0.0 1.0 0.00 0.00 0.00 83 1010.8
20260902113034 52 0.0 2.0 0.00 0.00 0.00 83 1010.9
20260902111532 52 0.0 1.0 0.00 0.00 0.00 83 1010.7
20260902110031 51 0.0 1.0 0.00 0.00 0.00 84 1010.7
20260902104534 52 0.0 2.0 0.00 0.01 0.00 84 1010.8
20260902103031 52 0.0 3.0 0.00 0.01 0.00 83 1010.8
20260902101530 51 2.0 5.0 0.00 0.01 0.00 84 1010.8
20260902100030 51 2.0 4.0 0.00 0.01 0.00 83 1010.7
20260902094529 51 1.0 4.0 0.00 0.01 0.00 82 1010.6
20260902093028 51 2.0 4.0 0.00 0.01 0.00 81 1010.5
20260902091529 51 0.0 3.0 0.00 0.01 0.00 82 1010.4
20260902090028 51 0.0 1.0 0.00 0.01 0.00 81 1010.3
20260902084531 51 0.0 1.0 0.00 0.01 0.00 80 1010.2
20260902083028 52 0.0 1.0 0.00 0.01 0.00 79 1010.1
20260902081526 53 0.0 1.0 0.00 0.01 0.00 78 1010.1
20260902080026 53 0.0 2.0 0.00 0.01 0.00 76 1010.2
20260902074525 55 0.0 0.0 0.00 0.01 0.00 74 1010.0
20260902073025 56 0.0 4.0 0.00 0.01 0.00 72 1009.9
20260902071525 57 0.0 2.0 0.00 0.01 0.00 70 1009.9
20260902070022 58 0.0 3.0 0.00 0.01 0.00 69 1009.9
20260902064524 59 0.0 8.0 0.00 0.01 0.00 67 1010.2
20260902063031 60 0.0 4.0 0.00 0.01 0.00 65 1010.2
20260902061520 59 2.0 8.0 0.00 0.01 0.00 66 1010.4